Weather History for Mount Airy, NC

Change the Weather History Date:

Thursday, February 14, 2013

  Actual Average (KINT) Record (KINT)
Temperature  
Mean Temperature 42 °F -  
Max Temperature 55 °F 50 °F 71 °F (1990)
Min Temperature 28 °F 32 °F 6 °F (1968)
Degree Days  
Heating Degree Days 24    
Moisture  
Dew Point 26 °F    
Average Humidity 55    
Maximum Humidity 79    
Minimum Humidity 32    
Precipitation  
Precipitation 0.00 in - - ()
Sea Level Pressure  
Sea Level Pressure 29.96 in    
Wind  
Wind Speed 5 mph (West)    
Max Wind Speed 12 mph    
Max Gust Speed 18 mph    
Visibility 10 miles    
Events      
Averages and records for this station are not official NWS values.
T = Trace of Precipitation, MM = Missing Value Source: NWS Daily Summary

Daily Weather History Graph

Daily Weather History Graph

Search for Another Location

Airport:

Trip Planner

Search our weather history database for the weather conditions in past years. The results will help you decide how hot, cold, wet, or windy it might be!

Date:

Astronomy

Feb. 14, 2013 Rise Set
Actual Time 7:10 AM EST 6:02 PM EST
Civil Twilight 6:44 AM EST 6:28 PM EST
Nautical Twilight 6:14 AM EST 6:58 PM EST
Astronomical Twilight 5:44 AM EST 7:28 PM EST
Moon 9:21 AM EST (2/14) 10:53 PM EST (2/14)
Length of Visible Light 11h 44m
Length of Day
10h 51m
Waxing Crescent, 21% of the Moon is Illuminated
Feb 14
Waxing Crescent
Feb 17
First Quarter
Feb 25
Full
Mar 4
Last Quarter
Mar 11
New

Hourly Weather History & Observations

Time (EST) Temp. Windchill Dew Point Humidity Pressure Visibility Wind Dir Wind Speed Gust Speed Precip Events Conditions
12:15 AM 39.4 °F 35.2 °F 32.0 °F 75% 29.84 in 10.0 mi NW 5.8 mph - N/A   Mostly Cloudy
12:35 AM 40.3 °F 34.9 °F 32.2 °F 73% 29.85 in 10.0 mi WNW 8.1 mph - N/A   Overcast
12:55 AM 41.4 °F 34.7 °F 32.0 °F 69% 29.85 in 10.0 mi NW 11.5 mph 16.1 mph N/A   Overcast
1:15 AM 41.0 °F 34.3 °F 31.8 °F 70% 29.86 in 10.0 mi NW 11.5 mph 18.4 mph N/A   Overcast
1:35 AM 40.5 °F 35.1 °F 30.4 °F 67% 29.87 in 10.0 mi NW 8.1 mph - N/A   Mostly Cloudy
1:55 AM 39.7 °F 36.5 °F 29.8 °F 68% 29.88 in 10.0 mi WNW 4.6 mph 16.1 mph N/A   Mostly Cloudy
2:15 AM 39.4 °F 33.2 °F 29.5 °F 68% 29.88 in 10.0 mi West 9.2 mph - N/A   Scattered Clouds
2:35 AM 38.7 °F 35.2 °F 28.9 °F 68% 29.88 in 10.0 mi WNW 4.6 mph - N/A   Scattered Clouds
2:55 AM 37.8 °F 32.5 °F 28.8 °F 70% 29.88 in 10.0 mi WNW 6.9 mph - N/A   Clear
3:15 AM 38.3 °F 33.2 °F 28.4 °F 68% 29.89 in 10.0 mi NW 6.9 mph - N/A   Clear
3:35 AM 38.3 °F 32.5 °F 28.4 °F 68% 29.88 in 10.0 mi NW 8.1 mph - N/A   Clear
3:55 AM 37.0 °F - 27.3 °F 68% 29.89 in 10.0 mi Calm Calm - N/A   Clear
4:15 AM 36.5 °F 30.3 °F 27.5 °F 70% 29.89 in 10.0 mi WNW 8.1 mph - N/A   Clear
4:35 AM 36.9 °F 32.2 °F 27.5 °F 69% 29.90 in 10.0 mi WNW 5.8 mph - N/A   Clear
4:55 AM 36.5 °F 33.9 °F 27.1 °F 69% 29.90 in 10.0 mi NNW 3.5 mph - N/A   Clear
5:15 AM 35.1 °F 32.2 °F 25.9 °F 69% 29.90 in 10.0 mi NNW 3.5 mph - N/A   Clear
5:35 AM 34.7 °F 31.8 °F 26.1 °F 71% 29.91 in 10.0 mi WNW 3.5 mph - N/A   Clear
5:55 AM 33.6 °F - 24.8 °F 70% 29.92 in 10.0 mi Calm Calm - N/A   Clear
6:15 AM 32.0 °F - 24.1 °F 73% 29.93 in 10.0 mi Calm Calm - N/A   Clear
6:35 AM 31.3 °F - 22.1 °F 69% 29.94 in 10.0 mi Calm Calm - N/A   Clear
6:55 AM 29.7 °F - 20.3 °F 68% 29.95 in 10.0 mi Calm Calm - N/A   Clear
7:15 AM 28.6 °F - 19.9 °F 70% 29.95 in 10.0 mi Calm Calm - N/A   Clear
7:35 AM 28.4 °F - 20.1 °F 71% 29.97 in 10.0 mi Calm Calm - N/A   Clear
7:55 AM 33.1 °F 30.0 °F 27.3 °F 79% 29.98 in 10.0 mi NW 3.5 mph - N/A   Clear
8:15 AM 37.8 °F 35.3 °F 28.9 °F 71% 30.00 in 10.0 mi NW 3.5 mph - N/A   Clear
8:35 AM 40.1 °F 36.9 °F 29.1 °F 65% 30.01 in 10.0 mi NW 4.6 mph - N/A   Clear
8:55 AM 41.9 °F 40.0 °F 29.5 °F 61% 30.02 in 10.0 mi WNW 3.5 mph - N/A   Clear
9:15 AM 42.4 °F 38.1 °F 28.4 °F 58% 30.02 in 10.0 mi NW 6.9 mph - N/A   Clear
9:35 AM 43.2 °F 39.0 °F 28.4 °F 56% 30.03 in 10.0 mi WNW 6.9 mph - N/A   Clear
9:55 AM 45.0 °F 42.6 °F 31.1 °F 58% 30.03 in 10.0 mi WSW 4.6 mph - N/A   Clear
10:15 AM 46.4 °F 43.5 °F 30.9 °F 55% 30.02 in 10.0 mi NNW 5.8 mph - N/A   Clear
10:35 AM 47.3 °F - 31.3 °F 54% 30.01 in 10.0 mi WNW 4.6 mph - N/A   Clear
10:55 AM 48.4 °F - 31.3 °F 52% 30.02 in 10.0 mi Calm Calm - N/A   Clear
11:15 AM 49.1 °F - 29.7 °F 47% 30.01 in 10.0 mi WNW 4.6 mph - N/A   Clear
11:35 AM 50.0 °F - 30.7 °F 48% 30.00 in 10.0 mi North 4.6 mph - N/A   Clear
11:55 AM 52.2 °F - 31.6 °F 46% 30.00 in 10.0 mi Calm Calm - N/A   Clear
12:15 PM 51.6 °F - 28.9 °F 42% 30.00 in 10.0 mi Calm Calm - N/A   Clear
12:35 PM 53.1 °F - 27.5 °F 37% 29.99 in 10.0 mi SSE 3.5 mph - N/A   Clear
12:55 PM 53.6 °F - 28.9 °F 39% 29.98 in 10.0 mi SW 3.5 mph - N/A   Clear
1:15 PM 54.3 °F - 27.0 °F 35% 29.98 in 10.0 mi SSW 6.9 mph - N/A   Clear
1:35 PM 53.6 °F - 25.3 °F 34% 29.97 in 10.0 mi Calm Calm - N/A   Clear
1:55 PM 54.3 °F - 27.5 °F 36% 29.97 in 10.0 mi SSW 5.8 mph - N/A   Clear
2:15 PM 54.7 °F - 26.1 °F 33% 29.95 in 10.0 mi SSE 5.8 mph - N/A   Clear
2:35 PM 55.4 °F - 25.5 °F 32% 29.93 in 10.0 mi South 5.8 mph - N/A   Clear
2:55 PM 55.4 °F - 25.7 °F 32% 29.93 in 10.0 mi SSW 6.9 mph - N/A   Clear
3:15 PM 54.7 °F - 26.4 °F 34% 29.95 in 10.0 mi South 6.9 mph - N/A   Clear
3:35 PM 55.4 °F - 27.1 °F 34% 29.96 in 10.0 mi South 6.9 mph - N/A   Clear
3:55 PM 54.9 °F - 25.7 °F 32% 29.95 in 10.0 mi SSW 5.8 mph - N/A   Clear
4:15 PM 54.7 °F - 26.1 °F 33% 29.95 in 10.0 mi SSE 4.6 mph - N/A   Clear
4:35 PM 54.7 °F - 26.8 °F 34% 29.95 in 10.0 mi SSW 6.9 mph - N/A   Clear
4:55 PM 54.7 °F - 25.7 °F 33% 29.95 in 10.0 mi SSW 3.5 mph - N/A   Clear
5:15 PM 53.6 °F - 26.4 °F 35% 29.95 in 10.0 mi SSE 6.9 mph - N/A   Clear
5:35 PM 52.2 °F - 26.6 °F 37% 29.95 in 10.0 mi SSW 5.8 mph - N/A   Clear
5:55 PM 49.6 °F - 27.7 °F 43% 29.96 in 10.0 mi Calm Calm - N/A   Clear
6:15 PM 46.9 °F - 25.2 °F 43% 29.96 in 10.0 mi Calm Calm - N/A   Clear
6:35 PM 44.6 °F - 23.0 °F 43% 29.97 in 10.0 mi Calm Calm - N/A   Clear
6:55 PM 41.7 °F - 21.9 °F 45% 29.97 in 10.0 mi Calm Calm - N/A   Clear
7:15 PM 43.0 °F - 24.8 °F 49% 29.97 in 10.0 mi Calm Calm - N/A   Clear
7:35 PM 40.6 °F - 18.3 °F 41% 29.97 in 10.0 mi Calm Calm - N/A   Clear
7:55 PM 39.7 °F - 21.6 °F 48% 29.98 in 10.0 mi Calm Calm - N/A   Clear
8:15 PM 38.1 °F 35.7 °F 20.1 °F 48% 29.99 in 10.0 mi NNE 3.5 mph - N/A   Clear
8:35 PM 36.9 °F - 22.8 °F 57% 29.99 in 10.0 mi Calm Calm - N/A   Clear
8:55 PM 36.5 °F 33.9 °F 24.6 °F 62% 29.99 in 10.0 mi East 3.5 mph - N/A   Clear
9:15 PM 34.3 °F - 21.2 °F 59% 30.00 in 10.0 mi Calm Calm - N/A   Clear
9:35 PM 34.0 °F 31.0 °F 22.1 °F 62% 30.01 in 10.0 mi SSE 3.5 mph - N/A   Clear
9:55 PM 34.7 °F 31.8 °F 22.1 °F 60% 30.01 in 10.0 mi SE 3.5 mph - N/A   Clear
10:15 PM 35.2 °F 32.4 °F 23.5 °F 62% 30.02 in 10.0 mi SE 3.5 mph - N/A   Clear
10:35 PM 36.0 °F - 24.3 °F 63% 30.01 in 10.0 mi Calm Calm - N/A   Clear
10:55 PM 35.6 °F - 23.9 °F 62% 30.02 in 10.0 mi Calm Calm - N/A   Clear
11:15 PM 35.6 °F - 24.4 °F 64% 30.01 in 10.0 mi Calm Calm - N/A   Clear
11:35 PM 34.3 °F - 23.2 °F 64% 30.01 in 10.0 mi Calm Calm - N/A   Clear
11:55 PM 35.2 °F - 25.7 °F 68% 30.01 in 10.0 mi Calm Calm - N/A   Clear